User: anonymous   Login
Location: Winthrop
(48.4780°N, 120.1850°W)
Time: 04:34:28
(UTC-07:00)
Language:

Explorer 7 - Orbit

View from above orbital plane
View from above orbital plane
View from above satellite
View from above satellite

Ground track
Ground track

The orbit data is extracted from the following two-line orbital elements,

1    22U 59009A   24111.08063136  .00017972  00000-0  10624-2 0  9994
2    22  50.2803 330.5376 0115414 242.6972 116.2189 15.06006861435608
Epoch (UTC): 20 April 2024 01:56:06
Eccentricity: 0.0115414
inclination: 50.2803°
perigee height: 468 km
apogee height: 628 km
right ascension of ascending node: 330.5376°
argument of perigee: 242.6972°
revolutions per day: 15.06006861
mean anomaly at epoch: 116.2189°
orbit number at epoch: 43560

The dashed part of the orbit path shows where the satellite is in the earth's shadow,  

DLR